Tracking 27111 objects as of 29-Mar-2023
HD Live streaming from Space Station
objects crossing your sky now

COSMOS 249 DEB

Track COSMOS 249 DEB now!
10-day predictions


NORAD ID: 14410
Int'l Code: 1968-091CL
Perigee: 653.9 km
Apogee: 1,309.5 km
Inclination: 62.2 °
Period: 104.6 minutes
Semi major axis: 7352 km
RCS: 0.0157 m2 (small)
Launch date: October 20, 1968
Source: Commonwealth of Independent States (former USSR) (CIS)
Launch site: TYURATAM MISSILE AND SPACE COMPLEX (TTMTR)

Note: This is SATELLITE DEBRIS
Your satellite tracking list
Your tracking list is empty




NASA's NSSDC Master Catalog

Two Line Element Set (TLE):
1 14410U 68091CL  23087.36902083  .00022102  00000-0  10704-1 0  9995
2 14410  62.2143  72.8432 0445832 336.7697 170.2859 13.76995023939944
Source of the keplerian elements: AFSPC